GTI8540 KORD-KMIA

Flight info

Callsign GTI8540
Flight time 2h 58m
Altitude 35000
Route DENNT DARCY DREGS/N0465F340 DONVE/N0469F350 BWG BBABE SARGE HONID FROGZ5
Aircraft B77L/H-SDE1E2E3FGHIJ2J3J4J5M1RWXY/LB1D1

Departure

Time 2026-05-04 06:57
Airport Chicago O'Hare International Airport (KORD)

Arrival

Time 2026-05-04 09:56
Airport Miami International Airport (KMIA)
Time Latitude Longitude Altitude Speed Heading
2026-05-04 06:00 41.96305 -87.91156 673 ft 0 kts 30°
2026-05-04 06:40 41.96218 -87.91285 673 ft 3 kts 90°
2026-05-04 06:40 41.96218 -87.91290 673 ft 0 kts 90°
2026-05-04 06:44 41.96219 -87.91098 673 ft 9 kts 90°
2026-05-04 06:44 41.96219 -87.91015 673 ft 9 kts 90°
2026-05-04 06:44 41.96219 -87.90933 673 ft 9 kts 90°
2026-05-04 06:45 41.96219 -87.90850 673 ft 9 kts 85°
2026-05-04 06:45 41.96248 -87.90779 673 ft 9 kts 50°
2026-05-04 06:45 41.96287 -87.90715 673 ft 9 kts 51°
2026-05-04 06:45 41.96325 -87.90649 673 ft 9 kts 52°
2026-05-04 06:46 41.96344 -87.90576 673 ft 9 kts 107°
2026-05-04 06:46 41.96296 -87.90526 673 ft 9 kts 149°
2026-05-04 06:46 41.96243 -87.90483 673 ft 9 kts 143°
2026-05-04 06:46 41.96204 -87.90419 673 ft 9 kts 125°
2026-05-04 06:48 41.95860 -87.90077 673 ft 10 kts 101°
2026-05-04 06:48 41.95862 -87.89981 673 ft 10 kts 90°
2026-05-04 06:49 41.95862 -87.89886 673 ft 10 kts 90°
2026-05-04 06:50 41.96123 -87.89299 673 ft 14 kts 41°
2026-05-04 06:51 41.96183 -87.89227 671 ft 10 kts 39°
2026-05-04 06:51 41.96246 -87.89201 673 ft 10 kts
2026-05-04 06:51 41.96313 -87.89200 673 ft 10 kts 359°
2026-05-04 06:51 41.96380 -87.89201 673 ft 10 kts 359°
2026-05-04 06:52 41.96444 -87.89201 673 ft 5 kts 360°
2026-05-04 06:52 41.96460 -87.89201 673 ft 0 kts 360°
2026-05-04 06:54 41.96461 -87.89201 673 ft 2 kts 360°
2026-05-04 06:54 41.96507 -87.89202 674 ft 9 kts 360°
2026-05-04 06:54 41.96557 -87.89204 674 ft 6 kts 350°
2026-05-04 06:54 41.96578 -87.89253 673 ft 7 kts 270°
2026-05-04 06:55 41.96577 -87.89323 672 ft 11 kts 269°
2026-05-04 06:55 41.96576 -87.89542 673 ft 37 kts 270°
2026-05-04 06:55 41.96576 -87.90114 674 ft 93 kts 270°
2026-05-04 06:55 41.96574 -87.91273 672 ft 152 kts 270°
2026-05-04 06:56 41.96575 -87.92896 737 ft 189 kts 269°
2026-05-04 06:57 41.90624 -87.95904 4271 ft 241 kts 150°
2026-05-04 06:58 41.89184 -87.94647 4780 ft 254 kts 150°
2026-05-04 06:58 41.87700 -87.93247 4977 ft 271 kts 146°
2026-05-04 06:58 41.86069 -87.92075 5005 ft 265 kts 165°
2026-05-04 06:58 41.84276 -87.91426 5521 ft 270 kts 167°
2026-05-04 06:59 41.82466 -87.90612 6212 ft 278 kts 162°
2026-05-04 06:59 41.80652 -87.89667 6987 ft 281 kts 161°
2026-05-04 06:59 41.78819 -87.88697 7742 ft 285 kts 161°
2026-05-04 06:59 41.76961 -87.87715 8465 ft 290 kts 161°
2026-05-04 07:01 41.61981 -87.79942 11925 ft 389 kts 161°
2026-05-04 07:01 41.59419 -87.78653 12789 ft 394 kts 161°
2026-05-04 07:02 41.56837 -87.77359 13686 ft 398 kts 161°
2026-05-04 07:02 41.54203 -87.76200 14460 ft 401 kts 167°
2026-05-04 07:02 41.51494 -87.75416 15216 ft 406 kts 171°
2026-05-04 07:02 41.48675 -87.74646 16032 ft 410 kts 169°
2026-05-04 07:03 41.45915 -87.73810 16818 ft 415 kts 168°
2026-05-04 07:03 41.43085 -87.72964 17584 ft 418 kts 172°
2026-05-04 07:03 41.40193 -87.72475 18299 ft 421 kts 179°
2026-05-04 07:03 41.37255 -87.72425 18986 ft 424 kts 183°
2026-05-04 07:04 41.34285 -87.72482 19643 ft 428 kts 183°
2026-05-04 07:04 41.31290 -87.72532 20309 ft 433 kts 183°
2026-05-04 07:04 41.28258 -87.72564 20956 ft 437 kts 183°
2026-05-04 07:04 41.25201 -87.72582 21593 ft 441 kts 183°
2026-05-04 07:05 41.22118 -87.72595 22206 ft 445 kts 183°
2026-05-04 07:05 41.19004 -87.72525 22800 ft 450 kts 179°
2026-05-04 07:05 41.15863 -87.72152 23373 ft 455 kts 177°
2026-05-04 07:05 41.12739 -87.71708 23933 ft 460 kts 176°
2026-05-04 07:06 41.06325 -87.70770 25028 ft 467 kts 177°
2026-05-04 07:06 41.03084 -87.70310 25538 ft 471 kts 177°
2026-05-04 07:06 40.99812 -87.69858 26032 ft 475 kts 177°
2026-05-04 07:07 40.96509 -87.69410 26521 ft 478 kts 177°
2026-05-04 07:08 40.72770 -87.66241 29604 ft 500 kts 178°
2026-05-04 07:09 40.69311 -87.65780 30089 ft 499 kts 178°
2026-05-04 07:09 40.65863 -87.65319 30643 ft 497 kts 178°
2026-05-04 07:09 40.62424 -87.64862 31167 ft 496 kts 178°
2026-05-04 07:09 40.58992 -87.64406 31618 ft 495 kts 178°
2026-05-04 07:10 40.55563 -87.63951 32047 ft 495 kts 178°
2026-05-04 07:10 40.52140 -87.63498 32478 ft 495 kts 178°
2026-05-04 07:12 40.28155 -87.60864 33863 ft 488 kts 187°
2026-05-04 07:12 40.21385 -87.61325 33872 ft 487 kts 187°
2026-05-04 07:13 40.14624 -87.61736 33871 ft 487 kts 187°
2026-05-04 07:13 40.07845 -87.62100 33872 ft 487 kts 187°
2026-05-04 07:14 39.94226 -87.60860 34885 ft 500 kts 169°
2026-05-04 07:14 39.90867 -87.59571 34854 ft 505 kts 166°
2026-05-04 07:15 39.84207 -87.56737 34867 ft 500 kts 165°
2026-05-04 07:15 39.77619 -87.53924 34878 ft 497 kts 165°
2026-05-04 07:16 39.71032 -87.51173 34882 ft 496 kts 166°
2026-05-04 07:16 39.65561 -87.48916 34880 ft 497 kts 166°
2026-05-04 07:17 39.58966 -87.46206 34884 ft 497 kts 166°
2026-05-04 07:17 39.51295 -87.43059 34903 ft 497 kts 166°
2026-05-04 07:18 39.45766 -87.40794 34918 ft 498 kts 166°
2026-05-04 07:18 39.39152 -87.38089 34928 ft 498 kts 166°
2026-05-04 07:19 39.32578 -87.35404 34924 ft 499 kts 166°
2026-05-04 07:19 39.25939 -87.32697 34917 ft 500 kts 166°
2026-05-04 07:20 39.19301 -87.29997 34913 ft 500 kts 166°
2026-05-04 07:20 39.12664 -87.27303 34907 ft 500 kts 166°
2026-05-04 07:22 38.86167 -87.16600 34901 ft 498 kts 166°
2026-05-04 07:23 38.79556 -87.13942 34907 ft 498 kts 166°
2026-05-04 07:23 38.72947 -87.11292 34906 ft 497 kts 166°
2026-05-04 07:24 38.66337 -87.08645 34910 ft 497 kts 166°
2026-05-04 07:24 38.59775 -87.06022 34908 ft 497 kts 166°
2026-05-04 07:26 38.33321 -86.95503 34939 ft 497 kts 166°
2026-05-04 07:27 38.26746 -86.92901 34943 ft 498 kts 166°
2026-05-04 07:27 38.20125 -86.90285 34940 ft 498 kts 166°
2026-05-04 07:28 38.13498 -86.87674 34945 ft 498 kts 166°
2026-05-04 07:28 38.06884 -86.85069 34947 ft 497 kts 166°
2026-05-04 07:29 38.00273 -86.82472 34961 ft 497 kts 166°
2026-05-04 07:29 37.93699 -86.79895 34966 ft 497 kts 166°
2026-05-04 07:30 37.87095 -86.77311 34964 ft 496 kts 166°
2026-05-04 07:30 37.80499 -86.74738 34961 ft 496 kts 166°
2026-05-04 07:31 37.73906 -86.72167 34963 ft 496 kts 166°
2026-05-04 07:33 37.47607 -86.61961 34976 ft 494 kts 166°
2026-05-04 07:33 37.41027 -86.59418 34982 ft 494 kts 166°
2026-05-04 07:34 37.34444 -86.56880 34984 ft 494 kts 166°
2026-05-04 07:34 37.27860 -86.54346 34993 ft 494 kts 166°
2026-05-04 07:35 37.21267 -86.51814 35000 ft 494 kts 166°
2026-05-04 07:35 37.14727 -86.49306 35013 ft 494 kts 166°
2026-05-04 07:36 37.08150 -86.46789 35014 ft 494 kts 166°
2026-05-04 07:38 36.81891 -86.36504 35014 ft 495 kts 165°
2026-05-04 07:38 36.75336 -86.33868 35030 ft 494 kts 165°
2026-05-04 07:39 36.68791 -86.31253 35035 ft 494 kts 165°
2026-05-04 07:39 36.62283 -86.28661 35043 ft 493 kts 165°
2026-05-04 07:40 36.55746 -86.26062 35055 ft 493 kts 165°
2026-05-04 07:40 36.49212 -86.23470 35056 ft 493 kts 165°
2026-05-04 07:41 36.42681 -86.20882 35067 ft 492 kts 165°
2026-05-04 07:41 36.36161 -86.18303 35068 ft 491 kts 165°
2026-05-04 07:42 36.29688 -86.15747 35061 ft 491 kts 165°
2026-05-04 07:42 36.23165 -86.13174 35047 ft 491 kts 165°
2026-05-04 07:43 36.16651 -86.10612 35040 ft 491 kts 165°
2026-05-04 07:43 36.10136 -86.08053 35041 ft 491 kts 165°
2026-05-04 07:44 36.03624 -86.05500 35041 ft 490 kts 165°
2026-05-04 07:44 35.97122 -86.02954 35054 ft 489 kts 165°
2026-05-04 07:45 35.90661 -86.00429 35057 ft 490 kts 165°
2026-05-04 07:45 35.84161 -85.97895 35064 ft 490 kts 165°
2026-05-04 07:46 35.77663 -85.95364 35068 ft 490 kts 165°
2026-05-04 07:46 35.71160 -85.92835 35077 ft 490 kts 165°
2026-05-04 07:47 35.64662 -85.90314 35073 ft 490 kts 165°
2026-05-04 07:49 35.38667 -85.80268 35078 ft 490 kts 165°
2026-05-04 07:49 35.32151 -85.77761 35086 ft 490 kts 165°
2026-05-04 07:50 35.25649 -85.75264 35087 ft 489 kts 165°
2026-05-04 07:50 35.19151 -85.72772 35080 ft 489 kts 165°
2026-05-04 07:51 35.12656 -85.70285 35096 ft 489 kts 165°
2026-05-04 07:51 35.06164 -85.67803 35081 ft 489 kts 165°
2026-05-04 07:52 34.99720 -85.65344 35103 ft 488 kts 165°
2026-05-04 07:52 34.93234 -85.62873 35102 ft 488 kts 165°
2026-05-04 07:54 34.67390 -85.52699 35115 ft 489 kts 163°
2026-05-04 07:55 34.60956 -85.50004 35108 ft 489 kts 163°
2026-05-04 07:55 34.54520 -85.47336 35113 ft 489 kts 163°
2026-05-04 07:56 34.48074 -85.44680 35111 ft 489 kts 163°
2026-05-04 07:56 34.41623 -85.42028 35112 ft 489 kts 163°
2026-05-04 07:57 34.35175 -85.39381 35116 ft 489 kts 163°
2026-05-04 07:57 34.28733 -85.36739 35122 ft 489 kts 163°
2026-05-04 07:58 34.22283 -85.34100 35120 ft 489 kts 163°
2026-05-04 07:58 34.15871 -85.31481 35121 ft 489 kts 163°
2026-05-04 07:59 34.09419 -85.28849 35118 ft 489 kts 163°
2026-05-04 07:59 34.02971 -85.26222 35120 ft 488 kts 163°
2026-05-04 08:00 33.96529 -85.23601 35122 ft 488 kts 163°
2026-05-04 08:02 33.70877 -85.13209 35159 ft 485 kts 163°
2026-05-04 08:02 33.64474 -85.10626 35173 ft 484 kts 164°
2026-05-04 08:03 33.58080 -85.08051 35175 ft 484 kts 164°
2026-05-04 08:03 33.51687 -85.05480 35171 ft 484 kts 164°
2026-05-04 08:04 33.45336 -85.02929 35163 ft 484 kts 164°
2026-05-04 08:04 33.38946 -85.00368 35156 ft 484 kts 164°
2026-05-04 08:05 33.33637 -84.98241 35149 ft 484 kts 164°
2026-05-04 08:05 33.27253 -84.95689 35148 ft 483 kts 164°
2026-05-04 08:06 33.19836 -84.92729 35141 ft 483 kts 164°
2026-05-04 08:06 33.14493 -84.90599 35138 ft 483 kts 164°
2026-05-04 08:08 32.89043 -84.80493 35137 ft 482 kts 165°
2026-05-04 08:11 32.60482 -84.69224 35138 ft 480 kts 165°
2026-05-04 08:11 32.50982 -84.65492 35147 ft 479 kts 165°
2026-05-04 08:12 32.44637 -84.63005 35129 ft 479 kts 165°
2026-05-04 08:12 32.38348 -84.60542 35131 ft 478 kts 165°
2026-05-04 08:13 32.32027 -84.58071 35125 ft 478 kts 165°
2026-05-04 08:13 32.25654 -84.55985 35126 ft 474 kts 171°
2026-05-04 08:14 32.19228 -84.54272 35122 ft 473 kts 171°
2026-05-04 08:16 31.93633 -84.47337 35132 ft 472 kts 171°
2026-05-04 08:16 31.87239 -84.45601 35129 ft 471 kts 171°
2026-05-04 08:17 31.80845 -84.43869 35139 ft 471 kts 171°
2026-05-04 08:17 31.74451 -84.42137 35137 ft 471 kts 171°
2026-05-04 08:19 31.48813 -84.35473 35148 ft 472 kts 172°
2026-05-04 08:20 31.42381 -84.33855 35148 ft 472 kts 172°
2026-05-04 08:20 31.35950 -84.32232 35143 ft 473 kts 172°
2026-05-04 08:21 31.29515 -84.30610 35141 ft 473 kts 172°
2026-05-04 08:21 31.23079 -84.28990 35139 ft 473 kts 172°
2026-05-04 08:22 31.16640 -84.27373 35138 ft 473 kts 172°
2026-05-04 08:24 30.90878 -84.20921 35149 ft 474 kts 172°
2026-05-04 08:24 30.84424 -84.19310 35147 ft 474 kts 172°
2026-05-04 08:25 30.78016 -84.17713 35149 ft 474 kts 173°
2026-05-04 08:25 30.71567 -84.16109 35147 ft 474 kts 173°
2026-05-04 08:27 30.45778 -84.09707 35138 ft 473 kts 173°
2026-05-04 08:28 30.39337 -84.08113 35141 ft 473 kts 173°
2026-05-04 08:28 30.36161 -84.07062 35124 ft 480 kts 161°
2026-05-04 08:28 30.33184 -84.05253 35149 ft 485 kts 155°
2026-05-04 08:29 30.27396 -84.01192 35131 ft 486 kts 154°
2026-05-04 08:31 30.04038 -83.85550 35140 ft 486 kts 155°
2026-05-04 08:33 29.80560 -83.70092 35131 ft 486 kts 155°
2026-05-04 08:35 29.57012 -83.54681 35131 ft 486 kts 156°
2026-05-04 08:35 29.51154 -83.50858 35119 ft 486 kts 156°
2026-05-04 08:37 29.30536 -83.37445 35120 ft 487 kts 156°
2026-05-04 08:38 29.24639 -83.33645 35123 ft 485 kts 158°
2026-05-04 08:38 29.18549 -83.30405 35122 ft 481 kts 162°
2026-05-04 08:40 28.93961 -83.18216 35114 ft 483 kts 162°
2026-05-04 08:41 28.87820 -83.15111 35119 ft 483 kts 162°
2026-05-04 08:41 28.81710 -83.12029 35114 ft 483 kts 162°
2026-05-04 08:42 28.75548 -83.08926 35111 ft 483 kts 162°
2026-05-04 08:42 28.69389 -83.05829 35112 ft 484 kts 162°
2026-05-04 08:43 28.63223 -83.02734 35111 ft 484 kts 162°
2026-05-04 08:43 28.57050 -82.99638 35112 ft 484 kts 162°
2026-05-04 08:44 28.50885 -82.96549 35111 ft 484 kts 162°
2026-05-04 08:46 28.26230 -82.84240 35083 ft 484 kts 162°
2026-05-04 08:46 28.20065 -82.81172 35088 ft 484 kts 162°
2026-05-04 08:47 28.13891 -82.78103 35088 ft 484 kts 162°
2026-05-04 08:47 28.07771 -82.75063 35083 ft 484 kts 162°
2026-05-04 08:48 28.01597 -82.72013 35079 ft 483 kts 164°
2026-05-04 08:48 27.95202 -82.70250 35079 ft 470 kts 177°
2026-05-04 08:49 27.88716 -82.69186 35081 ft 471 kts 178°
2026-05-04 08:50 27.66008 -82.64824 35054 ft 475 kts 176°
2026-05-04 08:51 27.59486 -82.63542 35054 ft 475 kts 176°
2026-05-04 08:51 27.52979 -82.62260 35055 ft 475 kts 175°
2026-05-04 08:52 27.46519 -82.60526 35059 ft 478 kts 171°
2026-05-04 08:52 27.40128 -82.58542 35056 ft 479 kts 171°
2026-05-04 08:54 27.15454 -82.51245 35047 ft 478 kts 171°
2026-05-04 08:55 27.09009 -82.49363 35040 ft 479 kts 171°
2026-05-04 08:55 27.02550 -82.47476 35036 ft 479 kts 171°
2026-05-04 08:57 26.82579 -82.35775 35055 ft 485 kts 144°
2026-05-04 09:01 26.46823 -82.01250 35034 ft 483 kts 143°
2026-05-04 09:01 26.41866 -81.96205 35038 ft 482 kts 143°
2026-05-04 09:02 26.36892 -81.91187 35037 ft 481 kts 143°
2026-05-04 09:02 26.31913 -81.86188 35037 ft 482 kts 143°
2026-05-04 09:03 26.26915 -81.81175 35036 ft 483 kts 143°
2026-05-04 09:03 26.22421 -81.75649 35014 ft 495 kts 121°
2026-05-04 09:04 26.19519 -81.68676 35029 ft 498 kts 118°
2026-05-04 09:04 26.16622 -81.61668 35033 ft 499 kts 119°
2026-05-04 09:05 26.13607 -81.54695 35033 ft 500 kts 120°
2026-05-04 09:05 26.10554 -81.47726 35035 ft 502 kts 120°
2026-05-04 09:06 26.07517 -81.40780 35030 ft 502 kts 120°
2026-05-04 09:08 25.95360 -81.12925 35018 ft 497 kts 119°
2026-05-04 09:08 25.92347 -81.06045 35002 ft 488 kts 119°
2026-05-04 09:08 25.90904 -81.02741 34983 ft 474 kts 118°
2026-05-04 09:09 25.89598 -80.99438 34985 ft 460 kts 116°
2026-05-04 09:09 25.87203 -80.92982 35018 ft 452 kts 116°
2026-05-04 09:10 25.84746 -80.86557 35006 ft 451 kts 117°
2026-05-04 09:10 25.82283 -80.80174 35007 ft 449 kts 116°
2026-05-04 09:11 25.79828 -80.73802 35000 ft 448 kts 116°
2026-05-04 09:11 25.77454 -80.67427 34981 ft 448 kts 108°
2026-05-04 09:11 25.77035 -80.64010 35001 ft 449 kts 88°
2026-05-04 09:12 25.77274 -80.60577 35023 ft 453 kts 86°
2026-05-04 09:14 25.78564 -80.32628 35000 ft 452 kts 89°
2026-05-04 09:14 25.78793 -80.25602 34634 ft 459 kts 99°
2026-05-04 09:14 25.77960 -80.22196 34071 ft 460 kts 118°
2026-05-04 09:15 25.76554 -80.19000 33977 ft 459 kts 119°
2026-05-04 09:15 25.75296 -80.15773 33761 ft 452 kts 114°
2026-05-04 09:15 25.74202 -80.12541 33810 ft 447 kts 115°
2026-05-04 09:17 25.63132 -79.84116 31094 ft 428 kts 134°
2026-05-04 09:18 25.60918 -79.82014 30606 ft 416 kts 157°
2026-05-04 09:18 25.58258 -79.80911 30288 ft 404 kts 172°
2026-05-04 09:18 25.55510 -79.80499 30047 ft 394 kts 182°
2026-05-04 09:18 25.52799 -79.80640 29767 ft 386 kts 193°
2026-05-04 09:19 25.50232 -79.81387 29435 ft 379 kts 206°
2026-05-04 09:19 25.47941 -79.82780 29086 ft 374 kts 219°
2026-05-04 09:19 25.46067 -79.84745 28741 ft 370 kts 233°
2026-05-04 09:19 25.44697 -79.87126 28445 ft 366 kts 245°
2026-05-04 09:20 25.43856 -79.89776 28145 ft 365 kts 257°
2026-05-04 09:20 25.43571 -79.92557 27850 ft 365 kts 269°
2026-05-04 09:20 25.43861 -79.95343 27534 ft 366 kts 282°
2026-05-04 09:20 25.44713 -79.97967 27234 ft 369 kts 294°
2026-05-04 09:21 25.46117 -80.00349 26920 ft 372 kts 307°
2026-05-04 09:21 25.48005 -80.02322 26662 ft 375 kts 319°
2026-05-04 09:21 25.50196 -80.03891 26422 ft 376 kts 328°
2026-05-04 09:21 25.52642 -80.04931 26245 ft 378 kts 347°
2026-05-04 09:22 25.55253 -80.05117 26125 ft 371 kts 352°
2026-05-04 09:22 25.57787 -80.05403 26023 ft 362 kts 347°
2026-05-04 09:22 25.60253 -80.05802 25933 ft 355 kts 347°
2026-05-04 09:22 25.62684 -80.06206 25743 ft 352 kts 347°
2026-05-04 09:23 25.65107 -80.06586 25480 ft 351 kts 347°
2026-05-04 09:23 25.67521 -80.06943 25230 ft 349 kts 347°
2026-05-04 09:23 25.69870 -80.07523 24973 ft 342 kts 335°
2026-05-04 09:23 25.71891 -80.08783 24708 ft 329 kts 312°
2026-05-04 09:25 25.74946 -80.24362 22948 ft 298 kts 264°
2026-05-04 09:25 25.74761 -80.26639 22747 ft 296 kts 265°
2026-05-04 09:26 25.74579 -80.28904 22520 ft 294 kts 265°
2026-05-04 09:26 25.74398 -80.31169 22295 ft 293 kts 265°
2026-05-04 09:26 25.74221 -80.33419 22051 ft 292 kts 265°
2026-05-04 09:26 25.74048 -80.35634 21817 ft 291 kts 265°
2026-05-04 09:27 25.73874 -80.37897 21576 ft 291 kts 265°
2026-05-04 09:27 25.73705 -80.40101 21361 ft 290 kts 265°
2026-05-04 09:27 25.73536 -80.42311 21276 ft 285 kts 265°
2026-05-04 09:27 25.73372 -80.44496 21223 ft 285 kts 265°
2026-05-04 09:28 25.73207 -80.46692 21211 ft 286 kts 265°
2026-05-04 09:28 25.73040 -80.48908 21213 ft 290 kts 265°
2026-05-04 09:28 25.72873 -80.51146 21209 ft 292 kts 265°
2026-05-04 09:28 25.72706 -80.53387 21201 ft 292 kts 265°
2026-05-04 09:29 25.72538 -80.55627 21198 ft 292 kts 265°
2026-05-04 09:29 25.72372 -80.57870 21198 ft 291 kts 265°
2026-05-04 09:29 25.72227 -80.60111 21198 ft 291 kts 267°
2026-05-04 09:29 25.72150 -80.62338 21134 ft 288 kts 268°
2026-05-04 09:30 25.72089 -80.64552 20900 ft 286 kts 268°
2026-05-04 09:30 25.72034 -80.66752 20582 ft 285 kts 268°
2026-05-04 09:30 25.71982 -80.68951 20213 ft 285 kts 268°
2026-05-04 09:30 25.71935 -80.71124 19890 ft 285 kts 268°
2026-05-04 09:31 25.71891 -80.73320 19566 ft 284 kts 268°
2026-05-04 09:31 25.71850 -80.75506 19259 ft 282 kts 269°
2026-05-04 09:31 25.72079 -80.77652 18881 ft 283 kts 285°
2026-05-04 09:31 25.72786 -80.79698 18532 ft 284 kts 291°
2026-05-04 09:32 25.73616 -80.81686 18242 ft 283 kts 292°
2026-05-04 09:32 25.74467 -80.83651 17945 ft 282 kts 292°
2026-05-04 09:34 25.80386 -80.97157 15930 ft 273 kts 292°
2026-05-04 09:34 25.81180 -80.99042 15648 ft 272 kts 292°
2026-05-04 09:34 25.81986 -81.00971 15362 ft 271 kts 292°
2026-05-04 09:34 25.82766 -81.02846 15089 ft 270 kts 292°
2026-05-04 09:35 25.83549 -81.04738 14808 ft 269 kts 292°
2026-05-04 09:35 25.84328 -81.06628 14530 ft 268 kts 292°
2026-05-04 09:35 25.85103 -81.08514 14257 ft 267 kts 292°
2026-05-04 09:35 25.86080 -81.10255 13890 ft 270 kts 311°
2026-05-04 09:37 25.96014 -81.05155 11868 ft 288 kts 89°
2026-05-04 09:37 25.95768 -81.02971 11607 ft 284 kts 110°
2026-05-04 09:38 25.94859 -81.01049 11324 ft 280 kts 131°
2026-05-04 09:38 25.93422 -80.99632 11059 ft 275 kts 151°
2026-05-04 09:38 25.91755 -80.98615 10793 ft 273 kts 156°
2026-05-04 09:38 25.90091 -80.97673 10515 ft 271 kts 149°
2026-05-04 09:39 25.88681 -80.96261 10102 ft 278 kts 127°
2026-05-04 09:39 25.87667 -80.94380 9569 ft 289 kts 118°
2026-05-04 09:39 25.86816 -80.92349 9201 ft 293 kts 112°
2026-05-04 09:39 25.86069 -80.90233 9128 ft 295 kts 112°
2026-05-04 09:40 25.85295 -80.88096 9130 ft 300 kts 113°
2026-05-04 09:40 25.84489 -80.85945 9117 ft 303 kts 113°
2026-05-04 09:40 25.83947 -80.84514 9114 ft 304 kts 114°
2026-05-04 09:40 25.83124 -80.82360 9094 ft 302 kts 114°
2026-05-04 09:41 25.82302 -80.80222 9081 ft 298 kts 114°
2026-05-04 09:42 25.74609 -80.68706 7378 ft 264 kts 182°
2026-05-04 09:43 25.72843 -80.69077 7038 ft 256 kts 205°
2026-05-04 09:43 25.71386 -80.70147 6698 ft 249 kts 228°
2026-05-04 09:43 25.70461 -80.71727 6360 ft 243 kts 251°
2026-05-04 09:43 25.70117 -80.73540 6047 ft 238 kts 264°
2026-05-04 09:44 25.70016 -80.75362 5705 ft 236 kts 274°
2026-05-04 09:44 25.70413 -80.77125 5383 ft 237 kts 291°
2026-05-04 09:44 25.71065 -80.78813 5098 ft 238 kts 294°
2026-05-04 09:46 25.78063 -80.87498 5012 ft 244 kts 13°
2026-05-04 09:46 25.79603 -80.86730 5007 ft 245 kts 39°
2026-05-04 09:46 25.80541 -80.85196 4996 ft 243 kts 78°
2026-05-04 09:47 25.80515 -80.83356 4913 ft 241 kts 101°
2026-05-04 09:47 25.80170 -80.81532 4698 ft 242 kts 103°
2026-05-04 09:49 25.77652 -80.69424 4005 ft 221 kts 103°
2026-05-04 09:49 25.77313 -80.67797 3991 ft 214 kts 103°
2026-05-04 09:49 25.77042 -80.66188 3987 ft 211 kts 92°
2026-05-04 09:51 25.77547 -80.56390 3316 ft 205 kts 87°
2026-05-04 09:51 25.77618 -80.54811 3195 ft 205 kts 87°
2026-05-04 09:51 25.77689 -80.53227 3112 ft 206 kts 87°
2026-05-04 09:51 25.77761 -80.51628 3066 ft 209 kts 87°
2026-05-04 09:52 25.77841 -80.50015 3028 ft 209 kts 87°
2026-05-04 09:52 25.77911 -80.48427 2998 ft 201 kts 87°
2026-05-04 09:52 25.77977 -80.46870 2770 ft 203 kts 88°
2026-05-04 09:52 25.78039 -80.45343 2532 ft 193 kts 88°
2026-05-04 09:53 25.78100 -80.43901 2257 ft 180 kts 88°
2026-05-04 09:53 25.78154 -80.42569 2035 ft 168 kts 88°
2026-05-04 09:53 25.78208 -80.41280 1825 ft 166 kts 87°
2026-05-04 09:53 25.78260 -80.40028 1600 ft 158 kts 88°
2026-05-04 09:54 25.78309 -80.38842 1405 ft 151 kts 88°
2026-05-04 09:54 25.78355 -80.37680 1203 ft 151 kts 87°
2026-05-04 09:54 25.78405 -80.36512 1007 ft 152 kts 87°
2026-05-04 09:54 25.78451 -80.35355 803 ft 152 kts 87°
2026-05-04 09:55 25.78497 -80.34178 572 ft 153 kts 86°
2026-05-04 09:55 25.78549 -80.33004 354 ft 152 kts 86°
2026-05-04 09:55 25.78598 -80.31840 161 ft 151 kts 86°
2026-05-04 09:55 25.78647 -80.30677 41 ft 149 kts 86°
2026-05-04 09:56 25.78690 -80.29636 25 ft 113 kts 87°
2026-05-04 09:56 25.78717 -80.28970 21 ft 60 kts 87°
2026-05-04 09:56 25.78729 -80.28706 23 ft 17 kts 87°
2026-05-04 09:56 25.78742 -80.28573 24 ft 17 kts 76°
2026-05-04 09:57 25.78775 -80.28494 24 ft 8 kts 57°
2026-05-04 09:57 25.78807 -80.28448 28 ft 6 kts 49°
2026-05-04 09:57 25.78822 -80.28429 24 ft 2 kts 48°
2026-05-04 09:57 25.78831 -80.28419 23 ft 2 kts 47°
2026-05-04 09:58 25.78839 -80.28409 23 ft 2 kts 46°
2026-05-04 09:58 25.78850 -80.28403 24 ft 2 kts 20°
2026-05-04 09:58 25.78862 -80.28405 26 ft 2 kts 341°
2026-05-04 10:00 25.78819 -80.29205 20 ft 16 kts 268°
2026-05-04 10:00 25.78813 -80.29329 24 ft 16 kts 267°
2026-05-04 10:02 25.78780 -80.30157 26 ft 15 kts 268°
2026-05-04 10:04 25.78979 -80.30562 21 ft 10 kts 359°
2026-05-04 10:04 25.79037 -80.30563 21 ft 7 kts 359°
2026-05-04 10:04 25.79079 -80.30564 22 ft 6 kts 359°
2026-05-04 10:04 25.79120 -80.30565 20 ft 6 kts 358°
2026-05-04 10:05 25.79143 -80.30565 21 ft 0 kts 358°
2026-05-04 10:05 25.79144 -80.30565 20 ft 1 kts
2026-05-04 10:05 25.79150 -80.30556 22 ft 1 kts 56°
2026-05-04 10:06 25.79149 -80.30546 20 ft 2 kts 98°
2026-05-04 10:06 25.79145 -80.30530 21 ft 3 kts 104°
2026-05-04 10:06 25.79149 -80.30513 20 ft 2 kts 66°
2026-05-04 10:08 25.79163 -80.30494 22 ft 0 kts 49°